Elkins, WV

5:41 PM EDT on September 21, 2017 (GMT -0400)
Elkins-Randolph County

Weather History for KEKN - December, 2012

Change the Weather History Date:

Saturday, December 22, 2012

  Actual Average Record
Temperature  
Mean Temperature 26 °F 31 °F  
Max Temperature 28 °F 41 °F 71 °F (2013)
Min Temperature 24 °F 21 °F -19 °F (1989)
Degree Days  
Heating Degree Days 39 34  
Month to date heating degree days 524 694  
Since 1 July heating degree days 1939 1978  
Cooling Degree Days 0 0  
Month to date cooling degree days 0 0  
Year to date cooling degree days 675 475  
Moisture  
Dew Point 19 °F    
Average Humidity 72    
Maximum Humidity 81    
Minimum Humidity 63    
Precipitation  
Precipitation 0.04 in 0.10 in 1.20 in (1970)
Month to date precipitation 3.34 2.37  
Year to date precipitation 45.45 45.04  
Snow  
Snow 2.30 in - - ()
Month to date snowfall 4.6  
Since 1 September snowfall 23.0  
Snow Depth 4.00 in    
Sea Level Pressure  
Sea Level Pressure 30.00 in    
Wind  
Wind Speed 9 mph (West)    
Max Wind Speed 25 mph    
Max Gust Speed 41 mph    
Visibility 4 miles    
Events Snow    
T = Trace of Precipitation, MM = Missing Value Source: NWS Daily Summary

Daily Weather History Graph

Daily Weather History Graph

Search for Another Location

Airport or City:

Trip Planner

Search our weather history database for the weather conditions in past years. The results will help you decide how hot, cold, wet, or windy it might be!

Date:

Astronomy

Dec. 22, 2012 Rise Set
Actual Time 7:35 AM EST 5:01 PM EST
Civil Twilight 7:05 AM EST 5:31 PM EST
Nautical Twilight 6:31 AM EST 6:05 PM EST
Astronomical Twilight 5:59 AM EST 6:37 PM EST
Moon 1:16 PM EST (12/22) 2:20 AM EST (12/22)
Length of Visible Light 10h 26m
Length of Day
9h 26m
Waxing Gibbous, 73% of the Moon is Illuminated
Dec 22
Waxing Gibbous
Dec 28
Full
Jan 4
Last Quarter
Jan 11
New
Jan 18
First Quarter

Hourly Weather History & Observations

Time (EST) Temp. Windchill Dew Point Humidity Pressure Visibility Wind Dir Wind Speed Gust Speed Precip Events Conditions
12:01 AM 26.6 °F 13.8 °F 19.4 °F 74% 29.74 in 1.0 mi West 17.3 mph 26.5 mph 0.00 in Snow Light Snow
12:16 AM 26.6 °F 13.8 °F 19.4 °F 74% 29.74 in 1.0 mi WSW 17.3 mph 29.9 mph 0.00 in Snow Light Snow
12:51 AM 26.1 °F 15.0 °F 19.9 °F 78% 29.82 in 1.2 mi WSW 12.7 mph 25.3 mph 0.01 in Snow Light Snow
1:46 AM 26.6 °F 13.8 °F 21.2 °F 80% 29.76 in 2.0 mi West 17.3 mph 32.2 mph 0.00 in Snow Light Snow
1:51 AM 27.0 °F 14.3 °F 21.0 °F 78% 29.84 in 2.0 mi West 17.3 mph 32.2 mph 0.00 in Snow Light Snow
2:18 AM 26.6 °F 13.8 °F 21.2 °F 80% 29.77 in 1.8 mi West 17.3 mph 29.9 mph 0.00 in Snow Light Snow
2:37 AM 26.6 °F 12.7 °F 21.2 °F 80% 29.78 in 2.5 mi West 20.7 mph 28.8 mph 0.00 in Snow Light Snow
2:51 AM 27.0 °F 12.8 °F 21.9 °F 81% 29.86 in 2.5 mi West 21.9 mph 29.9 mph 0.01 in Snow Light Snow
3:01 AM 26.6 °F 13.8 °F 21.2 °F 80% 29.78 in 2.5 mi West 17.3 mph 29.9 mph 0.00 in Snow Light Snow
3:08 AM 28.4 °F 15.1 °F 21.2 °F 74% 29.79 in 1.8 mi West 20.7 mph 31.1 mph 0.00 in Snow Light Snow
3:51 AM 28.0 °F 14.3 °F 21.9 °F 78% 29.90 in 2.0 mi WNW 21.9 mph 40.3 mph 0.00 in Snow Light Snow
4:05 AM 28.4 °F 15.1 °F 21.2 °F 74% 29.83 in 4.0 mi WNW 20.7 mph 28.8 mph 0.00 in Snow Light Snow
4:51 AM 28.4 °F 16.6 °F 21.2 °F 74% 29.85 in 4.0 mi WNW 16.1 mph 32.2 mph N/A Snow Light Snow
5:02 AM 28.4 °F 14.7 °F 19.4 °F 69% 29.85 in 3.0 mi WNW 21.9 mph 32.2 mph 0.00 in Snow Light Snow
5:39 AM 28.4 °F 15.1 °F 21.2 °F 74% 29.87 in 3.0 mi WNW 20.7 mph 26.5 mph 0.00 in Snow Light Snow
5:51 AM 28.0 °F 18.1 °F 21.9 °F 78% 29.96 in 3.0 mi WNW 11.5 mph 31.1 mph 0.00 in Snow Light Snow
6:51 AM 27.0 °F 19.5 °F 21.0 °F 78% 30.00 in 3.0 mi Variable 6.9 mph 16.1 mph 0.01 in Snow Light Snow
7:43 AM 28.4 °F 17.0 °F 19.4 °F 69% 29.96 in 8.0 mi West 15.0 mph 26.5 mph 0.00 in Snow Light Snow
7:51 AM 28.0 °F 18.6 °F 18.0 °F 66% 30.05 in 9.0 mi WNW 10.4 mph 25.3 mph 0.00 in   Overcast
8:25 AM 26.6 °F 17.5 °F 19.4 °F 74% 29.99 in 7.0 mi West 9.2 mph 21.9 mph 0.00 in Snow Light Snow
8:39 AM 26.6 °F 20.0 °F 19.4 °F 74% 29.99 in 2.0 mi West 5.8 mph 23.0 mph 0.00 in Snow Light Snow
8:51 AM 27.0 °F 15.2 °F 19.0 °F 72% 30.08 in 2.5 mi West 15.0 mph 26.5 mph 0.00 in Snow Light Snow
9:00 AM 26.6 °F 16.2 °F 19.4 °F 74% 30.00 in 4.0 mi West 11.5 mph - 0.00 in Snow Light Snow
9:11 AM 26.6 °F 18.2 °F 19.4 °F 74% 30.01 in 1.8 mi West 8.1 mph 16.1 mph 0.00 in Snow Light Snow
9:34 AM 26.6 °F 19.1 °F 21.2 °F 80% 30.03 in 0.8 mi Variable 6.9 mph - 0.00 in Snow Light Snow
9:51 AM 27.0 °F - 21.0 °F 78% 30.12 in 0.8 mi Calm Calm - 0.00 in Snow Light Snow
10:01 AM 26.6 °F 17.5 °F 19.4 °F 74% 30.04 in 1.0 mi WSW 9.2 mph - 0.00 in Snow Light Snow
10:51 AM 27.0 °F 18.0 °F 19.9 °F 75% 30.16 in 2.0 mi West 9.2 mph 21.9 mph 0.01 in Snow Light Snow
11:32 AM 26.6 °F 16.2 °F 19.4 °F 74% 30.07 in 1.8 mi WSW 11.5 mph - 0.00 in Snow Light Snow
11:46 AM 26.6 °F 19.1 °F 19.4 °F 74% 30.06 in 2.0 mi SW 6.9 mph - 0.00 in Snow Light Snow
11:51 AM 27.0 °F 18.0 °F 19.0 °F 72% 30.14 in 2.0 mi WSW 9.2 mph 17.3 mph 0.00 in Snow Light Snow
12:01 PM 26.6 °F 19.1 °F 19.4 °F 74% 30.06 in 1.8 mi SW 6.9 mph 24.2 mph 0.00 in Snow Light Snow
12:08 PM 26.6 °F 19.1 °F 19.4 °F 74% 30.05 in 2.0 mi WSW 6.9 mph - 0.00 in Snow Light Snow
12:51 PM 26.1 °F 17.6 °F 19.0 °F 75% 30.14 in 3.0 mi SW 8.1 mph - 0.00 in Snow Light Snow
1:11 PM 26.6 °F 15.7 °F 19.4 °F 74% 30.05 in 2.5 mi WSW 12.7 mph 19.6 mph 0.00 in Snow Light Snow
1:33 PM 26.6 °F 21.2 °F 17.6 °F 69% 30.05 in 3.0 mi WSW 4.6 mph 16.1 mph 0.00 in Snow Light Snow
1:51 PM 26.6 °F 19.1 °F 17.6 °F 69% 30.05 in 4.0 mi SW 6.9 mph 21.9 mph N/A Snow Light Snow
2:51 PM 26.1 °F 16.2 °F 18.0 °F 71% 30.14 in 8.0 mi West 10.4 mph 17.3 mph 0.00 in   Overcast
3:51 PM 26.1 °F 18.4 °F 18.0 °F 71% 30.15 in 10.0 mi West 6.9 mph - 0.00 in   Overcast
4:51 PM 26.1 °F 17.6 °F 17.1 °F 69% 30.17 in 10.0 mi West 8.1 mph - N/A   Overcast
5:51 PM 25.0 °F 15.5 °F 17.1 °F 72% 30.17 in 10.0 mi WSW 9.2 mph - N/A   Overcast
6:51 PM 25.0 °F 18.1 °F 16.0 °F 69% 30.18 in 10.0 mi West 5.8 mph - N/A   Overcast
7:51 PM 24.1 °F 16.0 °F 16.0 °F 71% 30.17 in 10.0 mi West 6.9 mph - N/A   Overcast
8:51 PM 25.0 °F - 17.1 °F 72% 30.17 in 10.0 mi Calm Calm - N/A   Overcast
9:51 PM 26.1 °F - 17.1 °F 69% 30.18 in 10.0 mi Calm Calm - N/A   Overcast
10:51 PM 26.1 °F 20.5 °F 18.0 °F 71% 30.18 in 10.0 mi SSW 4.6 mph - N/A   Overcast
11:44 PM 24.8 °F 20.5 °F 17.6 °F 74% 30.07 in 10.0 mi SSW 3.5 mph - N/A   Partly Cloudy
11:51 PM 25.0 °F 19.3 °F 16.0 °F 69% 30.16 in 10.0 mi SSW 4.6 mph - N/A   Partly Cloudy